Retour au catalogue

USA 576

ActifMilitaireVLEO
NORAD 67488·PAYLOAD·🇺🇸 United States

Lancé Jan 17, 2026 depuis Vandenberg Space Force Base

Loading…

Prochains Passages (prochaines 24 heures)

TLE

PériméSource: Mike McCants

Époque: Jul 15, 2026, 01:05 UTC

1 67488U 26011E   26196.04533004 0.00000000  00000-0  00000-0 0    09
2 67488  70.0260 167.0838 0002000 195.2748 164.7251 14.96713600    04

Suivez USA 576 en temps réel avec AllMySat

Download on the App Store